This is the latest recevied weather packets stored in our database for station/object W3SN-13. If no packets are shown the sender has not sent any weather packets the latest 10 day(s).
| Time | Temp. | Humidity | Pressure | Rain* | Wind** | Luminosity | Snow |
|---|---|---|---|---|---|---|---|
| 1788009328 | 22.78° C | 61% | 1014 hPa | 0 mm | - | - | - |
| 1788008726 | 23.33° C | 59% | 1013.9 hPa | 0 mm | - | - | - |
| 1788008125 | 23.33° C | 59% | 1013.9 hPa | 0 mm | - | - | - |
| 1788007523 | 23.33° C | 59% | 1013.8 hPa | 0 mm | - | - | - |
| 1788006922 | 23.33° C | 58% | 1013.8 hPa | 0 mm | - | - | - |
| 1788006321 | 23.33° C | 59% | 1013.8 hPa | 0 mm | - | - | - |
| 1788005719 | 23.33° C | 58% | 1013.7 hPa | 0 mm | - | - | - |
| 1788005116 | 23.33° C | 58% | 1013.8 hPa | 0 mm | - | - | - |
| 1788004515 | 23.33° C | 58% | 1013.7 hPa | 0 mm | - | - | - |
| 1788003913 | 23.33° C | 59% | 1013.7 hPa | 0 mm | - | - | - |
| 1788003311 | 23.33° C | 58% | 1013.7 hPa | 0 mm | - | - | - |
| 1788002710 | 23.33° C | 58% | 1013.7 hPa | 0 mm | - | - | - |
| 1788002107 | 23.33° C | 58% | 1013.6 hPa | 0 mm | - | - | - |
| 1788001505 | 23.33° C | 58% | 1013.6 hPa | 0 mm | - | - | - |
| 1788000900 | 23.33° C | 57% | 1013.5 hPa | 0 mm | - | - | - |
| 1788000298 | 23.89° C | 58% | 1013.5 hPa | 0 mm | - | - | - |
| 1787999697 | 23.89° C | 57% | 1013.5 hPa | 0 mm | - | - | - |
| 1787999095 | 24.44° C | 57% | 1013.3 hPa | 0 mm | - | - | - |
| 1787998493 | 23.89° C | 57% | 1013.2 hPa | 0 mm | - | - | - |
| 1787997892 | 24.44° C | 57% | 1013.2 hPa | 0 mm | - | - | - |
| 1787997290 | 24.44° C | 57% | 1013.2 hPa | 0 mm | - | - | - |
| 1787996688 | 25° C | 57% | 1013.2 hPa | 0 mm | - | - | - |
| 1787996087 | 25.56° C | 55% | 1013.1 hPa | 0 mm | - | - | - |
| 1787995485 | 25.56° C | 55% | 1013.2 hPa | 0 mm | - | - | - |
| 1787994884 | 25.56° C | 55% | 1013.4 hPa | 0 mm | - | - | - |
* Rain latest hour (hover to see other rain measurements)
** Current wind speed in m/s (hover to see current wind gust speed)